Time,TemperatureF,DewpointF,PressureIn,WindDirection,WindDirectionDegrees,WindSpeedMPH,WindSpeedGustMPH,Humidity,HourlyPrecipIn,Conditions,Clouds,dailyrainin,SolarRadiationWatts/m^2,SoftwareType,DateUTC
2013-11-21 00:03:00,47.0,45.9,29.60,NW,319,1.0,2.3,96,0.00,RA,,0.00,0.0,WeatherDisplay:10.37,2013-11-20 23:03:00,
2013-11-21 00:08:00,47.0,45.9,29.61,NW,318,0.1,1.2,96,0.00,RA,,0.00,0.0,WeatherDisplay:10.37,2013-11-20 23:08:00,
2013-11-21 00:13:00,47.0,45.9,29.61,WNW,297,0.9,3.5,96,0.00,SCT,,0.00,0.0,WeatherDisplay:10.37,2013-11-20 23:13:00,
2013-11-21 00:18:00,46.9,45.8,29.61,West,261,3.1,4.0,96,0.00,SCT,,0.00,0.0,WeatherDisplay:10.37,2013-11-20 23:18:00,
2013-11-21 00:23:00,46.8,45.7,29.61,West,263,1.1,3.5,96,0.00,SCT,,0.00,0.0,WeatherDisplay:10.37,2013-11-20 23:23:00,
2013-11-21 00:28:00,46.7,45.6,29.61,West,264,1.3,4.0,96,0.00,SCT,,0.00,0.0,WeatherDisplay:10.37,2013-11-20 23:28:00,
2013-11-21 00:33:00,46.5,45.4,29.62,WSW,246,3.2,8.1,96,0.00,SCT,,0.00,0.0,WeatherDisplay:10.37,2013-11-20 23:33:00,
2013-11-21 00:38:00,46.3,45.2,29.62,WSW,246,3.9,6.0,96,0.00,SCT,,0.00,0.0,WeatherDisplay:10.37,2013-11-20 23:38:00,
2013-11-21 00:43:00,46.0,44.6,29.62,WSW,255,0.1,2.3,95,0.00,SCT,,0.00,0.0,WeatherDisplay:10.37,2013-11-20 23:43:00,
2013-11-21 00:48:00,45.8,44.4,29.61,WSW,255,0.0,0.0,95,0.00,SCT,,0.00,0.0,WeatherDisplay:10.37,2013-11-20 23:48:00,
2013-11-21 00:53:00,45.6,44.3,29.61,WSW,255,0.1,1.2,95,0.00,SCT,,0.00,0.0,WeatherDisplay:10.37,2013-11-20 23:53:00,
2013-11-21 00:58:00,45.3,44.0,29.61,North,360,1.8,3.5,95,0.00,SCT,,0.00,0.0,WeatherDisplay:10.37,2013-11-20 23:58:00,
2013-11-21 01:03:00,45.0,43.7,29.61,WSW,257,1.6,4.0,95,0.00,SCT,,0.00,0.0,WeatherDisplay:10.37,2013-11-21 00:03:00,
2013-11-21 01:08:00,44.8,43.5,29.62,WNW,289,0.1,3.5,95,0.00,SCT,,0.00,0.0,WeatherDisplay:10.37,2013-11-21 00:08:00,
2013-11-21 01:13:00,44.6,43.3,29.62,WNW,289,0.0,0.0,95,0.00,SCT,,0.00,0.0,WeatherDisplay:10.37,2013-11-21 00:13:00,
2013-11-21 01:18:00,44.3,43.0,29.62,WNW,287,0.7,3.5,95,0.00,SCT,,0.00,0.0,WeatherDisplay:10.37,2013-11-21 00:18:00,
2013-11-21 01:23:00,44.1,42.8,29.62,WNW,288,0.5,2.3,95,0.00,SCT,,0.00,0.0,WeatherDisplay:10.37,2013-11-21 00:23:00,
2013-11-21 01:28:00,43.9,42.6,29.62,WNW,287,0.0,1.2,95,0.00,SCT,,0.00,0.0,WeatherDisplay:10.37,2013-11-21 00:28:00,
2013-11-21 01:33:00,43.7,42.4,29.62,WNW,286,0.0,1.2,95,0.00,SCT,,0.00,0.0,WeatherDisplay:10.37,2013-11-21 00:33:00,
2013-11-21 01:38:00,43.5,42.2,29.62,WNW,288,0.1,1.2,95,0.00,SCT,,0.00,0.0,WeatherDisplay:10.37,2013-11-21 00:38:00,
2013-11-21 01:43:00,43.4,42.1,29.62,WNW,288,0.0,0.0,95,0.00,SCT,,0.00,0.0,WeatherDisplay:10.37,2013-11-21 00:43:00,
2013-11-21 01:48:00,43.3,42.2,29.62,WNW,288,0.5,2.3,96,0.00,SCT,,0.00,0.0,WeatherDisplay:10.37,2013-11-21 00:48:00,
2013-11-21 01:53:00,43.4,42.3,29.63,WNW,285,2.5,4.0,96,0.00,SCT,,0.00,0.0,WeatherDisplay:10.37,2013-11-21 00:53:00,
2013-11-21 01:58:00,43.4,42.3,29.63,WNW,285,1.8,3.5,96,0.00,SCT,,0.00,0.0,WeatherDisplay:10.37,2013-11-21 00:58:00,
2013-11-21 02:03:00,43.4,42.3,29.63,WSW,242,4.6,7.0,96,0.00,SCT,,0.00,0.0,WeatherDisplay:10.37,2013-11-21 01:03:00,
2013-11-21 02:08:00,43.5,42.4,29.63,WSW,241,3.0,4.6,96,0.00,SCT,,0.00,0.0,WeatherDisplay:10.37,2013-11-21 01:08:00,
2013-11-21 02:13:00,43.4,42.3,29.63,WSW,239,0.8,3.5,96,0.00,SCT,,0.00,0.0,WeatherDisplay:10.37,2013-11-21 01:13:00,
2013-11-21 02:18:00,43.3,42.2,29.63,WSW,239,1.3,4.0,96,0.00,SCT,,0.00,0.0,WeatherDisplay:10.37,2013-11-21 01:18:00,
2013-11-21 02:23:00,43.3,42.2,29.62,WSW,240,1.5,3.5,96,0.00,SCT,,0.00,0.0,WeatherDisplay:10.37,2013-11-21 01:23:00,
2013-11-21 02:28:00,43.2,42.1,29.63,WSW,240,1.7,2.3,96,0.00,SCT,,0.00,0.0,WeatherDisplay:10.37,2013-11-21 01:28:00,
2013-11-21 02:33:00,43.1,42.0,29.63,WSW,240,1.6,3.5,96,0.00,SCT,,0.00,0.0,WeatherDisplay:10.37,2013-11-21 01:33:00,
2013-11-21 02:38:00,43.0,41.9,29.63,WSW,240,1.9,3.5,96,0.00,SCT,,0.00,0.0,WeatherDisplay:10.37,2013-11-21 01:38:00,
2013-11-21 02:43:00,43.0,41.9,29.63,WSW,240,2.4,3.5,96,0.00,SCT,,0.00,0.0,WeatherDisplay:10.37,2013-11-21 01:43:00,
2013-11-21 02:48:00,43.0,41.9,29.63,WSW,240,0.7,3.0,96,0.00,SCT,,0.00,0.0,WeatherDisplay:10.37,2013-11-21 01:48:00,
2013-11-21 02:53:00,42.9,41.8,29.63,SW,221,3.5,5.0,96,0.00,SCT,,0.00,0.0,WeatherDisplay:10.37,2013-11-21 01:53:00,
2013-11-21 02:58:00,42.8,41.7,29.63,SW,224,3.5,8.1,96,0.00,SCT,,0.00,0.0,WeatherDisplay:10.37,2013-11-21 01:58:00,
2013-11-21 03:03:00,42.7,41.6,29.64,SW,221,2.6,6.0,96,0.00,SCT,,0.00,0.0,WeatherDisplay:10.37,2013-11-21 02:03:00,
2013-11-21 03:08:00,42.6,41.5,29.64,SW,216,0.0,3.5,96,0.00,SCT,,0.00,0.0,WeatherDisplay:10.37,2013-11-21 02:08:00,
2013-11-21 03:13:00,42.5,41.4,29.64,SW,214,1.6,4.0,96,0.00,SCT,,0.00,0.0,WeatherDisplay:10.37,2013-11-21 02:13:00,
2013-11-21 03:18:00,42.4,41.3,29.64,SW,214,0.3,2.3,96,0.00,SCT,,0.00,0.0,WeatherDisplay:10.37,2013-11-21 02:18:00,
2013-11-21 03:23:00,42.3,41.2,29.64,SSW,209,0.3,3.5,96,0.00,SCT,,0.00,0.0,WeatherDisplay:10.37,2013-11-21 02:23:00,
2013-11-21 03:28:00,42.1,41.0,29.64,SSW,209,0.4,3.5,96,0.00,SCT,,0.00,0.0,WeatherDisplay:10.37,2013-11-21 02:28:00,
2013-11-21 03:33:00,42.0,40.9,29.64,SSW,203,0.8,2.3,96,0.00,SCT,,0.00,0.0,WeatherDisplay:10.37,2013-11-21 02:33:00,
2013-11-21 03:38:00,41.8,40.5,29.64,SSW,203,0.0,1.2,95,0.00,SCT,,0.00,0.0,WeatherDisplay:10.37,2013-11-21 02:38:00,
2013-11-21 03:43:00,41.6,40.3,29.64,SSW,204,0.2,2.3,95,0.00,SCT,,0.00,0.0,WeatherDisplay:10.37,2013-11-21 02:43:00,
2013-11-21 03:48:00,41.4,40.3,29.64,SSW,203,0.0,0.0,96,0.00,SCT,,0.00,0.0,WeatherDisplay:10.37,2013-11-21 02:48:00,
2013-11-21 03:53:00,41.2,40.1,29.64,SSW,204,1.0,3.5,96,0.00,SCT,,0.00,0.0,WeatherDisplay:10.37,2013-11-21 02:53:00,
2013-11-21 03:58:00,41.1,39.8,29.64,SSW,202,0.0,1.2,95,0.00,SCT,,0.00,0.0,WeatherDisplay:10.37,2013-11-21 02:58:00,
2013-11-21 04:03:00,40.9,39.6,29.64,SSW,203,0.9,2.3,95,0.00,SCT,,0.00,0.0,WeatherDisplay:10.37,2013-11-21 03:03:00,
2013-11-21 04:08:00,40.7,39.6,29.64,SSW,202,0.0,0.0,96,0.00,SCT,,0.00,0.0,WeatherDisplay:10.37,2013-11-21 03:08:00,
2013-11-21 04:13:00,40.5,39.2,29.64,SSW,203,1.9,3.5,95,0.00,SCT,,0.00,0.0,WeatherDisplay:10.37,2013-11-21 03:13:00,
2013-11-21 04:18:00,40.3,39.0,29.64,SSE,162,3.0,4.0,95,0.00,SCT,,0.00,0.0,WeatherDisplay:10.37,2013-11-21 03:18:00,
2013-11-21 04:23:00,40.2,39.2,29.64,SSE,162,1.1,4.6,96,0.00,SCT,,0.00,0.0,WeatherDisplay:10.37,2013-11-21 03:23:00,
2013-11-21 04:28:00,40.1,38.8,29.65,SSE,163,1.7,4.6,95,0.00,SCT,,0.00,0.0,WeatherDisplay:10.37,2013-11-21 03:28:00,
2013-11-21 04:33:00,40.0,39.0,29.65,SSE,162,1.0,3.5,96,0.00,SCT,,0.00,0.0,WeatherDisplay:10.37,2013-11-21 03:33:00,
2013-11-21 04:38:00,39.9,38.9,29.65,SSE,161,1.1,3.5,96,0.00,SCT,,0.00,0.0,WeatherDisplay:10.37,2013-11-21 03:38:00,
2013-11-21 04:43:00,39.9,38.9,29.65,SSE,162,0.9,3.5,96,0.00,SCT,,0.00,0.0,WeatherDisplay:10.37,2013-11-21 03:43:00,
2013-11-21 04:48:00,39.8,38.8,29.65,SSE,163,0.0,2.3,96,0.00,SCT,,0.00,0.0,WeatherDisplay:10.37,2013-11-21 03:48:00,
2013-11-21 04:53:00,39.7,38.7,29.65,SSE,161,0.4,3.5,96,0.00,SCT,,0.00,0.0,WeatherDisplay:10.37,2013-11-21 03:53:00,
2013-11-21 04:58:00,39.6,38.6,29.65,SSE,162,0.1,1.2,96,0.00,SCT,,0.00,0.0,WeatherDisplay:10.37,2013-11-21 03:58:00,
2013-11-21 05:03:00,39.4,38.4,29.65,SSE,163,0.0,0.0,96,0.00,SCT,,0.00,0.0,WeatherDisplay:10.37,2013-11-21 04:03:00,
2013-11-21 05:08:00,39.4,38.4,29.65,SSE,162,0.0,1.2,96,0.00,SCT,,0.00,0.0,WeatherDisplay:10.37,2013-11-21 04:08:00,
2013-11-21 05:13:00,39.2,38.2,29.64,SSE,163,0.0,0.0,96,0.00,SCT,,0.00,0.0,WeatherDisplay:10.37,2013-11-21 04:13:00,
2013-11-21 05:18:00,39.1,38.1,29.65,SSE,162,0.0,0.0,96,0.00,SCT,,0.00,0.0,WeatherDisplay:10.37,2013-11-21 04:18:00,
2013-11-21 05:23:00,38.9,37.9,29.65,SSE,162,0.0,0.0,96,0.00,SCT,,0.00,0.0,WeatherDisplay:10.37,2013-11-21 04:23:00,
2013-11-21 05:28:00,38.8,37.5,29.64,SSE,162,0.0,0.0,95,0.00,SCT,,0.00,0.0,WeatherDisplay:10.37,2013-11-21 04:28:00,
2013-11-21 05:33:00,38.6,37.6,29.64,SSE,163,0.0,0.0,96,0.00,SCT,,0.00,0.0,WeatherDisplay:10.37,2013-11-21 04:33:00,
2013-11-21 05:38:00,38.5,37.5,29.65,SSE,162,0.0,0.0,96,0.00,SCT,,0.00,0.0,WeatherDisplay:10.37,2013-11-21 04:38:00,
2013-11-21 05:43:00,38.4,37.1,29.64,SSE,162,0.0,0.0,95,0.00,SCT,,0.00,0.0,WeatherDisplay:10.37,2013-11-21 04:43:00,
2013-11-21 05:48:00,38.2,37.2,29.64,SSE,162,0.0,0.0,96,0.00,SCT,,0.00,0.0,WeatherDisplay:10.37,2013-11-21 04:48:00,
2013-11-21 05:53:00,38.3,37.3,29.64,SSE,162,0.0,0.0,96,0.00,SCT,,0.00,0.0,WeatherDisplay:10.37,2013-11-21 04:53:00,
2013-11-21 05:58:00,38.3,37.3,29.65,SSE,162,0.0,0.0,96,0.00,SCT,,0.00,0.0,WeatherDisplay:10.37,2013-11-21 04:58:00,
2013-11-21 06:01:00,38.4,37.4,29.65,SSE,163,0.0,0.0,96,0.00,SCT,,0.00,0.0,WeatherDisplay:10.37,2013-11-21 05:01:00,
2013-11-21 06:02:00,38.4,37.4,29.65,SSE,162,0.0,0.0,96,0.00,SCT,,0.00,0.0,WeatherDisplay:10.37,2013-11-21 05:02:00,
2013-11-21 06:03:00,38.4,37.4,29.65,SSE,162,0.0,0.0,96,0.00,SCT,,0.00,0.0,WeatherDisplay:10.37,2013-11-21 05:03:00,
2013-11-21 06:04:00,38.4,37.4,29.65,SSE,162,0.0,0.0,96,0.00,SCT,,0.00,0.0,WeatherDisplay:10.37,2013-11-21 05:04:00,
2013-11-21 06:09:00,38.3,37.3,29.65,SSE,163,0.0,0.0,96,0.00,SCT,,0.00,0.0,WeatherDisplay:10.37,2013-11-21 05:09:00,
2013-11-21 06:12:00,38.3,37.3,29.66,SSE,163,0.0,0.0,96,0.00,SCT,,0.00,0.0,WeatherDisplay:10.37,2013-11-21 05:12:00,
2013-11-21 06:17:00,38.1,37.1,29.66,SSE,162,0.0,0.0,96,0.00,SCT,,0.00,0.0,WeatherDisplay:10.37,2013-11-21 05:17:00,
2013-11-21 06:22:00,37.9,36.9,29.66,SSE,163,0.0,0.0,96,0.00,SCT,,0.00,0.0,WeatherDisplay:10.37,2013-11-21 05:22:00,
2013-11-21 06:23:00,37.9,36.9,29.66,SSE,163,0.0,0.0,96,0.00,SCT,,0.00,0.0,WeatherDisplay:10.37,2013-11-21 05:23:00,
2013-11-21 06:28:00,37.8,36.8,29.66,SSE,161,0.0,0.0,96,0.00,SCT,,0.00,0.0,WeatherDisplay:10.37,2013-11-21 05:28:00,
2013-11-21 06:33:00,37.6,36.6,29.66,SSE,162,0.0,0.0,96,0.00,SCT,,0.00,0.0,WeatherDisplay:10.37,2013-11-21 05:33:00,
2013-11-21 06:38:00,37.5,36.5,29.67,SSE,162,0.0,0.0,96,0.00,SCT,,0.00,0.0,WeatherDisplay:10.37,2013-11-21 05:38:00,
2013-11-21 06:43:00,37.4,36.4,29.67,SSE,161,0.0,0.0,96,0.00,SCT,,0.00,0.0,WeatherDisplay:10.37,2013-11-21 05:43:00,
2013-11-21 06:48:00,37.4,36.4,29.67,SSE,162,0.0,0.0,96,0.00,SCT,,0.00,0.0,WeatherDisplay:10.37,2013-11-21 05:48:00,
2013-11-21 06:53:00,37.4,36.4,29.67,SSE,162,0.0,0.0,96,0.00,SCT,,0.00,0.0,WeatherDisplay:10.37,2013-11-21 05:53:00,
2013-11-21 06:58:00,37.3,36.3,29.67,SSE,162,0.0,0.0,96,0.00,SCT,,0.00,0.0,WeatherDisplay:10.37,2013-11-21 05:58:00,
2013-11-21 06:59:00,37.3,36.3,29.67,SSE,162,0.0,0.0,96,0.00,SCT,,0.00,0.0,WeatherDisplay:10.37,2013-11-21 05:59:00,
2013-11-21 07:04:00,37.3,36.3,29.67,SSE,162,0.0,0.0,96,0.00,SCT,,0.00,0.0,WeatherDisplay:10.37,2013-11-21 06:04:00,
2013-11-21 07:09:00,37.3,36.3,29.67,SSE,162,0.0,1.2,96,0.00,SCT,,0.00,5.0,WeatherDisplay:10.37,2013-11-21 06:09:00,
2013-11-21 07:14:00,37.4,36.4,29.67,SSE,162,0.0,0.0,96,0.00,SCT,,0.00,7.0,WeatherDisplay:10.37,2013-11-21 06:14:00,
2013-11-21 07:19:00,37.5,36.5,29.67,SSE,162,0.0,0.0,96,0.00,SCT,,0.00,11.0,WeatherDisplay:10.37,2013-11-21 06:19:00,
2013-11-21 07:24:00,37.6,36.6,29.67,SSE,163,0.0,0.0,96,0.00,SCT,,0.00,12.0,WeatherDisplay:10.37,2013-11-21 06:24:00,
2013-11-21 07:29:00,37.6,36.6,29.67,SSE,162,0.0,0.0,96,0.00,SCT,,0.00,18.0,WeatherDisplay:10.37,2013-11-21 06:29:00,
2013-11-21 07:34:00,37.6,36.6,29.67,SSE,161,0.0,0.0,96,0.00,SCT,,0.00,25.0,WeatherDisplay:10.37,2013-11-21 06:34:00,
2013-11-21 07:39:00,37.7,36.7,29.67,SSE,161,0.0,1.2,96,0.00,SCT,,0.00,35.0,WeatherDisplay:10.37,2013-11-21 06:39:00,
2013-11-21 07:44:00,37.7,36.7,29.67,SSE,161,0.0,0.0,96,0.00,SCT,,0.00,49.0,WeatherDisplay:10.37,2013-11-21 06:44:00,
2013-11-21 07:49:00,37.8,36.8,29.68,SSE,162,0.0,1.2,96,0.00,SCT,,0.00,63.0,WeatherDisplay:10.37,2013-11-21 06:49:00,
2013-11-21 07:54:00,38.0,37.0,29.68,SSE,162,0.6,2.3,96,0.00,SCT,,0.00,72.0,WeatherDisplay:10.37,2013-11-21 06:54:00,
2013-11-21 07:59:00,38.1,37.1,29.67,SSE,161,0.1,1.2,96,0.00,CLR,,0.00,74.0,WeatherDisplay:10.37,2013-11-21 06:59:00,
2013-11-21 08:04:00,38.3,37.5,29.67,SSE,162,0.0,1.2,97,0.00,CLR,,0.00,77.0,WeatherDisplay:10.37,2013-11-21 07:04:00,
2013-11-21 08:09:00,38.5,37.7,29.67,SSE,161,0.0,0.0,97,0.00,CLR,,0.00,91.0,WeatherDisplay:10.37,2013-11-21 07:09:00,
2013-11-21 08:14:00,38.6,37.6,29.67,SSE,161,0.0,0.0,96,0.00,CLR,,0.00,88.0,WeatherDisplay:10.37,2013-11-21 07:14:00,
2013-11-21 08:19:00,38.8,38.0,29.67,SSE,162,0.0,0.0,97,0.00,CLR,,0.00,105.0,WeatherDisplay:10.37,2013-11-21 07:19:00,
2013-11-21 08:24:00,39.0,38.2,29.67,SSE,162,0.1,1.2,97,0.00,CLR,,0.00,111.0,WeatherDisplay:10.37,2013-11-21 07:24:00,
2013-11-21 08:29:00,39.4,38.6,29.67,SSE,162,0.4,2.3,97,0.00,CLR,,0.00,165.0,WeatherDisplay:10.37,2013-11-21 07:29:00,
2013-11-21 08:34:00,40.3,39.5,29.67,SSE,162,1.1,2.3,97,0.00,CLR,,0.00,216.0,WeatherDisplay:10.37,2013-11-21 07:34:00,
2013-11-21 08:39:00,41.0,40.2,29.67,SSE,162,0.1,2.3,97,0.00,CLR,,0.00,213.0,WeatherDisplay:10.37,2013-11-21 07:39:00,
2013-11-21 08:44:00,41.4,40.6,29.66,SSE,161,0.1,1.2,97,0.00,CLR,,0.00,246.0,WeatherDisplay:10.37,2013-11-21 07:44:00,
2013-11-21 08:49:00,41.8,41.0,29.66,SSE,162,0.3,2.3,97,0.00,CLR,,0.00,214.0,WeatherDisplay:10.37,2013-11-21 07:49:00,
2013-11-21 08:54:00,41.9,41.1,29.66,SSE,162,0.0,1.2,97,0.00,CLR,,0.00,111.0,WeatherDisplay:10.37,2013-11-21 07:54:00,
2013-11-21 08:59:00,41.9,41.1,29.66,SSE,161,0.1,2.3,97,0.00,FEW,,0.00,105.0,WeatherDisplay:10.37,2013-11-21 07:59:00,
2013-11-21 09:04:00,41.9,41.1,29.66,SSE,162,0.1,2.3,97,0.00,SCT,,0.00,105.0,WeatherDisplay:10.37,2013-11-21 08:04:00,
2013-11-21 09:09:00,41.9,41.1,29.66,NE,40,0.7,3.5,97,0.00,SCT,,0.00,102.0,WeatherDisplay:10.37,2013-11-21 08:09:00,
2013-11-21 09:14:00,41.9,41.1,29.66,NE,40,0.0,0.0,97,0.00,SCT,,0.00,128.0,WeatherDisplay:10.37,2013-11-21 08:14:00,
2013-11-21 09:19:00,41.8,41.0,29.66,ENE,65,1.1,3.5,97,0.00,SCT,,0.00,116.0,WeatherDisplay:10.37,2013-11-21 08:19:00,
2013-11-21 09:24:00,41.8,41.0,29.66,ENE,65,0.3,2.3,97,0.00,SCT,,0.00,113.0,WeatherDisplay:10.37,2013-11-21 08:24:00,
2013-11-21 09:29:00,41.7,40.9,29.66,ENE,63,0.0,3.5,97,0.00,SCT,,0.00,114.0,WeatherDisplay:10.37,2013-11-21 08:29:00,
2013-11-21 09:34:00,41.7,40.9,29.66,ENE,63,0.0,1.2,97,0.00,SCT,,0.00,111.0,WeatherDisplay:10.37,2013-11-21 08:34:00,
2013-11-21 09:39:00,41.8,41.0,29.66,ENE,73,2.3,4.0,97,0.00,SCT,,0.00,114.0,WeatherDisplay:10.37,2013-11-21 08:39:00,
2013-11-21 09:44:00,41.7,40.6,29.66,East,80,1.3,3.5,96,0.00,SCT,,0.00,113.0,WeatherDisplay:10.37,2013-11-21 08:44:00,
2013-11-21 09:49:00,41.7,40.6,29.65,East,80,0.5,2.0,96,0.00,SCT,,0.00,109.0,WeatherDisplay:10.37,2013-11-21 08:49:00,
2013-11-21 09:54:00,41.7,40.6,29.66,ENE,73,0.0,1.2,96,0.00,SCT,,0.00,114.0,WeatherDisplay:10.37,2013-11-21 08:54:00,
2013-11-21 09:59:00,41.7,40.6,29.66,ENE,73,0.2,2.3,96,0.00,SCT,,0.00,158.0,WeatherDisplay:10.37,2013-11-21 08:59:00,
2013-11-21 10:04:00,41.8,40.7,29.66,ENE,73,0.9,2.3,96,0.00,SCT,,0.00,190.0,WeatherDisplay:10.37,2013-11-21 09:04:00,
2013-11-21 10:09:00,42.0,40.9,29.66,ENE,73,1.5,3.5,96,0.00,CLR,,0.00,332.0,WeatherDisplay:10.37,2013-11-21 09:09:00,
2013-11-21 10:14:00,42.5,41.7,29.66,East,93,3.2,6.0,97,0.00,CLR,,0.00,318.0,WeatherDisplay:10.37,2013-11-21 09:14:00,
2013-11-21 10:19:00,42.8,42.0,29.66,NE,53,3.0,5.0,97,0.00,CLR,,0.00,362.0,WeatherDisplay:10.37,2013-11-21 09:19:00,
2013-11-21 10:24:00,43.1,42.3,29.65,ENE,63,0.7,4.6,97,0.00,CLR,,0.00,297.0,WeatherDisplay:10.37,2013-11-21 09:24:00,
2013-11-21 10:29:00,43.3,42.5,29.65,East,91,1.0,2.3,97,0.00,CLR,,0.00,232.0,WeatherDisplay:10.37,2013-11-21 09:29:00,
2013-11-21 10:34:00,43.4,42.3,29.65,East,90,0.1,2.3,96,0.00,CLR,,0.00,260.0,WeatherDisplay:10.37,2013-11-21 09:34:00,
2013-11-21 10:39:00,43.8,42.7,29.65,East,90,1.5,3.5,96,0.00,CLR,,0.00,272.0,WeatherDisplay:10.37,2013-11-21 09:39:00,
2013-11-21 10:44:00,44.0,42.9,29.65,East,85,1.9,3.5,96,0.00,CLR,,0.00,230.0,WeatherDisplay:10.37,2013-11-21 09:44:00,
2013-11-21 10:49:00,44.0,42.9,29.65,NE,56,2.8,6.9,96,0.00,FEW,,0.00,230.0,WeatherDisplay:10.37,2013-11-21 09:49:00,
2013-11-21 10:54:00,43.9,42.6,29.65,East,90,2.9,5.8,95,0.00,CLR,,0.00,213.0,WeatherDisplay:10.37,2013-11-21 09:54:00,
2013-11-21 10:59:00,43.8,42.5,29.65,North,355,2.3,6.9,95,0.00,CLR,,0.00,244.0,WeatherDisplay:10.37,2013-11-21 09:59:00,
2013-11-21 11:04:00,43.6,42.3,29.65,ENE,59,1.9,6.9,95,0.00,FEW,,0.00,178.0,WeatherDisplay:10.37,2013-11-21 10:04:00,
2013-11-21 11:09:00,43.3,41.7,29.64,East,86,3.2,5.0,94,0.00,SCT,,0.00,190.0,WeatherDisplay:10.37,2013-11-21 10:09:00,
2013-11-21 11:14:00,43.1,41.5,29.64,ESE,104,0.2,3.5,94,0.00,FEW,,0.00,255.0,WeatherDisplay:10.37,2013-11-21 10:14:00,
2013-11-21 11:19:00,43.0,41.4,29.63,NE,51,0.1,5.8,94,0.00,SCT,,0.00,125.0,WeatherDisplay:10.37,2013-11-21 10:19:00,
2013-11-21 11:24:00,42.9,41.3,29.63,ENE,66,1.2,3.0,94,0.00,SCT,,0.00,120.0,WeatherDisplay:10.37,2013-11-21 10:24:00,
2013-11-21 11:29:00,42.9,41.3,29.63,ESE,109,0.5,2.0,94,0.00,BKN,,0.00,128.0,WeatherDisplay:10.37,2013-11-21 10:29:00,
2013-11-21 11:34:00,42.9,41.3,29.64,ESE,111,3.5,6.0,94,0.00,SCT,,0.00,163.0,WeatherDisplay:10.37,2013-11-21 10:34:00,
2013-11-21 11:39:00,42.8,41.2,29.63,ESE,103,0.3,2.3,94,0.00,SCT,,0.00,153.0,WeatherDisplay:10.37,2013-11-21 10:39:00,
2013-11-21 11:44:00,42.7,41.4,29.64,ESE,118,2.5,5.0,95,0.00,SCT,,0.00,146.0,WeatherDisplay:10.37,2013-11-21 10:44:00,
2013-11-21 11:49:00,42.6,41.3,29.64,ESE,118,0.1,3.5,95,0.00,SCT,,0.00,123.0,WeatherDisplay:10.37,2013-11-21 10:49:00,
2013-11-21 11:54:00,42.7,41.4,29.63,ESE,117,1.7,3.5,95,0.00,BKN,,0.00,102.0,WeatherDisplay:10.37,2013-11-21 10:54:00,
2013-11-21 11:59:00,42.7,41.4,29.64,East,85,0.6,3.0,95,0.00,BKN,,0.00,97.0,WeatherDisplay:10.37,2013-11-21 10:59:00,
2013-11-21 12:04:00,42.7,41.4,29.64,East,85,0.7,2.3,95,0.00,BKN,,0.00,86.0,WeatherDisplay:10.37,2013-11-21 11:04:00,
2013-11-21 12:09:00,42.8,41.5,29.64,SSE,151,2.9,4.6,95,0.00,BKN,,0.00,81.0,WeatherDisplay:10.37,2013-11-21 11:09:00,
2013-11-21 12:14:00,42.8,41.5,29.63,SSE,163,0.6,2.3,95,0.00,BKN,,0.00,97.0,WeatherDisplay:10.37,2013-11-21 11:14:00,
2013-11-21 12:19:00,42.9,41.6,29.63,East,98,3.5,5.0,95,0.00,BKN,,0.00,93.0,WeatherDisplay:10.37,2013-11-21 11:19:00,
2013-11-21 12:24:00,43.0,41.7,29.63,East,82,2.0,5.0,95,0.00,BKN,,0.00,88.0,WeatherDisplay:10.37,2013-11-21 11:24:00,
2013-11-21 12:29:00,43.0,41.7,29.63,East,88,1.0,3.5,95,0.00,BKN,,0.00,93.0,WeatherDisplay:10.37,2013-11-21 11:29:00,
2013-11-21 12:34:00,43.1,41.8,29.63,ENE,60,1.6,3.5,95,0.00,BKN,,0.00,116.0,WeatherDisplay:10.37,2013-11-21 11:34:00,
2013-11-21 12:39:00,43.2,41.9,29.63,SE,126,1.3,3.5,95,0.00,BKN,,0.00,113.0,WeatherDisplay:10.37,2013-11-21 11:39:00,
2013-11-21 12:44:00,43.3,42.0,29.63,East,101,1.2,3.5,95,0.00,BKN,,0.00,113.0,WeatherDisplay:10.37,2013-11-21 11:44:00,
2013-11-21 12:49:00,43.4,42.1,29.63,North,5,3.3,8.1,95,0.00,BKN,,0.00,86.0,WeatherDisplay:10.37,2013-11-21 11:49:00,
2013-11-21 12:54:00,43.3,42.0,29.63,East,90,3.3,8.1,95,0.00,BKN,,0.00,79.0,WeatherDisplay:10.37,2013-11-21 11:54:00,
2013-11-21 12:59:00,43.3,42.0,29.62,ENE,77,2.6,7.0,95,0.00,BKN,,0.00,60.0,WeatherDisplay:10.37,2013-11-21 11:59:00,
2013-11-21 13:04:00,43.2,41.9,29.62,East,82,2.9,8.1,95,0.00,BKN,,0.00,60.0,WeatherDisplay:10.37,2013-11-21 12:04:00,
2013-11-21 13:09:00,43.2,41.9,29.62,East,80,1.0,3.5,95,0.00,BKN,,0.00,63.0,WeatherDisplay:10.37,2013-11-21 12:09:00,
2013-11-21 13:14:00,43.2,41.9,29.62,ENE,67,1.1,5.8,95,0.00,BKN,,0.00,62.0,WeatherDisplay:10.37,2013-11-21 12:14:00,
2013-11-21 13:19:00,43.2,41.9,29.62,East,81,1.9,4.6,95,0.00,BKN,,0.00,62.0,WeatherDisplay:10.37,2013-11-21 12:19:00,
2013-11-21 13:24:00,43.2,41.9,29.61,East,83,1.4,3.5,95,0.00,BKN,,0.00,47.0,WeatherDisplay:10.37,2013-11-21 12:24:00,
2013-11-21 13:29:00,43.2,41.9,29.61,ENE,70,1.3,3.5,95,0.00,BKN,,0.00,46.0,WeatherDisplay:10.37,2013-11-21 12:29:00,
2013-11-21 13:34:00,43.1,41.8,29.61,NE,52,2.5,11.5,95,0.00,BKN,,0.00,47.0,WeatherDisplay:10.37,2013-11-21 12:34:00,
2013-11-21 13:39:00,43.1,41.8,29.61,East,88,0.3,6.9,95,0.00,BKN,,0.00,42.0,WeatherDisplay:10.37,2013-11-21 12:39:00,
2013-11-21 13:44:00,43.1,41.8,29.60,ENE,77,1.0,2.3,95,0.00,BKN,,0.00,39.0,WeatherDisplay:10.37,2013-11-21 12:44:00,
2013-11-21 13:49:00,43.1,41.8,29.60,NE,40,0.3,4.6,95,0.00,BKN,,0.00,42.0,WeatherDisplay:10.37,2013-11-21 12:49:00,
2013-11-21 13:54:00,43.2,41.9,29.60,East,82,3.1,8.1,95,0.00,BKN,,0.00,35.0,WeatherDisplay:10.37,2013-11-21 12:54:00,
2013-11-21 13:59:00,43.3,42.0,29.60,ESE,121,2.8,5.0,95,0.00,BKN,,0.00,30.0,WeatherDisplay:10.37,2013-11-21 12:59:00,
2013-11-21 14:04:00,43.4,42.1,29.61,SE,135,0.1,1.2,95,0.00,BKN,,0.00,26.0,WeatherDisplay:10.37,2013-11-21 13:04:00,
2013-11-21 14:09:00,43.4,42.1,29.60,NNW,345,1.7,5.8,95,0.00,BKN,,0.00,26.0,WeatherDisplay:10.37,2013-11-21 13:09:00,
2013-11-21 14:14:00,43.5,42.2,29.60,East,96,2.9,6.0,95,0.00,BKN,,0.00,26.0,WeatherDisplay:10.37,2013-11-21 13:14:00,
2013-11-21 14:19:00,43.6,42.3,29.60,SSW,211,1.2,4.6,95,0.00,BKN,,0.00,25.0,WeatherDisplay:10.37,2013-11-21 13:19:00,
2013-11-21 14:24:00,43.7,42.6,29.60,ESE,107,3.0,9.2,96,0.00,BKN,,0.00,19.0,WeatherDisplay:10.37,2013-11-21 13:24:00,
2013-11-21 14:29:00,43.7,42.6,29.59,NNE,23,5.6,9.2,96,0.00,BKN,,0.00,19.0,WeatherDisplay:10.37,2013-11-21 13:29:00,
2013-11-21 14:34:00,43.8,42.7,29.60,West,263,2.1,5.0,96,0.00,BKN,,0.00,21.0,WeatherDisplay:10.37,2013-11-21 13:34:00,
2013-11-21 14:39:00,43.8,42.7,29.60,NW,319,2.6,5.8,96,0.00,BKN,,0.00,19.0,WeatherDisplay:10.37,2013-11-21 13:39:00,
2013-11-21 14:44:00,43.7,42.6,29.60,NE,52,1.4,4.6,96,0.00,BKN,,0.00,21.0,WeatherDisplay:10.37,2013-11-21 13:44:00,
2013-11-21 14:49:00,43.7,42.6,29.60,East,93,2.0,11.0,96,0.00,BKN,,0.00,19.0,WeatherDisplay:10.37,2013-11-21 13:49:00,
2013-11-21 14:54:00,43.7,42.6,29.60,ENE,75,4.8,13.0,96,0.00,BKN,,0.00,16.0,WeatherDisplay:10.37,2013-11-21 13:54:00,
2013-11-21 14:59:00,43.7,42.6,29.60,ESE,105,4.9,9.2,96,0.00,BKN,,0.00,18.0,WeatherDisplay:10.37,2013-11-21 13:59:00,
2013-11-21 15:04:00,43.7,42.6,29.60,SE,124,2.2,6.9,96,0.00,BKN,,0.00,11.0,WeatherDisplay:10.37,2013-11-21 14:04:00,
2013-11-21 15:09:00,43.7,42.6,29.59,East,100,5.3,12.7,96,0.00,BKN,,0.00,5.0,WeatherDisplay:10.37,2013-11-21 14:09:00,
2013-11-21 15:14:00,43.8,42.7,29.59,NE,49,6.1,15.0,96,0.00,BKN,,0.00,0.0,WeatherDisplay:10.37,2013-11-21 14:14:00,
2013-11-21 15:19:00,43.8,42.7,29.60,East,98,4.4,8.1,96,0.00,BKN,,0.00,0.0,WeatherDisplay:10.37,2013-11-21 14:19:00,
2013-11-21 15:24:00,43.9,42.8,29.60,SE,125,7.0,13.8,96,0.00,BKN,,0.00,0.0,WeatherDisplay:10.37,2013-11-21 14:24:00,
2013-11-21 15:29:00,44.0,42.9,29.59,East,86,7.7,13.8,96,0.00,BKN,,0.00,5.0,WeatherDisplay:10.37,2013-11-21 14:29:00,
2013-11-21 15:34:00,44.0,42.9,29.59,East,94,6.5,11.5,96,0.00,BKN,,0.00,5.0,WeatherDisplay:10.37,2013-11-21 14:34:00,
2013-11-21 15:39:00,44.1,43.0,29.59,NNE,30,7.9,12.7,96,0.00,BKN,,0.00,0.0,WeatherDisplay:10.37,2013-11-21 14:39:00,
2013-11-21 15:44:00,44.1,43.0,29.59,East,92,8.1,13.8,96,0.00,BKN,,0.00,0.0,WeatherDisplay:10.37,2013-11-21 14:44:00,
2013-11-21 15:49:00,44.2,43.1,29.58,East,96,4.4,12.7,96,0.01,RA,,0.01,0.0,WeatherDisplay:10.37,2013-11-21 14:49:00,
2013-11-21 15:54:00,44.3,43.2,29.58,ENE,74,8.2,15.0,96,0.02,RA,,0.02,0.0,WeatherDisplay:10.37,2013-11-21 14:54:00,
2013-11-21 15:59:00,44.3,43.2,29.58,East,98,7.6,13.8,96,0.02,RA,,0.02,0.0,WeatherDisplay:10.37,2013-11-21 14:59:00,
2013-11-21 16:04:00,44.4,43.3,29.58,ESE,106,7.2,17.3,96,0.02,BKN,,0.02,0.0,WeatherDisplay:10.37,2013-11-21 15:04:00,
2013-11-21 16:09:00,44.4,43.3,29.58,ESE,108,5.1,14.0,96,0.02,RA,,0.02,0.0,WeatherDisplay:10.37,2013-11-21 15:09:00,
2013-11-21 16:14:00,44.5,43.4,29.58,ENE,71,4.6,15.0,96,0.02,RA,,0.03,0.0,WeatherDisplay:10.37,2013-11-21 15:14:00,
2013-11-21 16:19:00,44.5,43.4,29.58,East,94,4.0,15.0,96,0.03,RA,,0.03,0.0,WeatherDisplay:10.37,2013-11-21 15:19:00,
2013-11-21 16:24:00,44.6,43.5,29.59,SE,126,3.5,11.0,96,0.04,RA,,0.04,0.0,WeatherDisplay:10.37,2013-11-21 15:24:00,
2013-11-21 16:29:00,44.6,43.5,29.59,East,101,1.5,10.4,96,0.04,RA,,0.04,0.0,WeatherDisplay:10.37,2013-11-21 15:29:00,
2013-11-21 16:34:00,44.7,43.6,29.59,East,99,4.1,9.2,96,0.04,BKN,,0.04,0.0,WeatherDisplay:10.37,2013-11-21 15:34:00,
2013-11-21 16:39:00,44.7,43.6,29.59,East,84,4.3,8.1,96,0.05,RA,,0.06,0.0,WeatherDisplay:10.37,2013-11-21 15:39:00,
2013-11-21 16:44:00,44.7,43.6,29.59,SE,133,6.4,13.0,96,0.06,RA,,0.06,0.0,WeatherDisplay:10.37,2013-11-21 15:44:00,
2013-11-21 16:49:00,44.8,43.7,29.59,ESE,106,7.5,13.0,96,0.06,RA,,0.07,0.0,WeatherDisplay:10.37,2013-11-21 15:49:00,
2013-11-21 16:54:00,44.8,43.7,29.59,East,82,7.7,11.0,96,0.06,RA,,0.07,0.0,WeatherDisplay:10.37,2013-11-21 15:54:00,
2013-11-21 16:59:00,44.9,43.8,29.58,ENE,70,3.9,13.0,96,0.06,RA,,0.07,0.0,WeatherDisplay:10.37,2013-11-21 15:59:00,
2013-11-21 17:04:00,44.9,43.8,29.59,ESE,107,3.6,9.2,96,0.06,BKN,,0.08,0.0,WeatherDisplay:10.37,2013-11-21 16:04:00,
2013-11-21 17:09:00,44.9,43.8,29.59,ENE,78,3.7,8.1,96,0.06,RA,,0.08,0.0,WeatherDisplay:10.37,2013-11-21 16:09:00,
2013-11-21 17:14:00,45.0,43.9,29.58,East,85,6.8,13.8,96,0.06,RA,,0.08,0.0,WeatherDisplay:10.37,2013-11-21 16:14:00,
2013-11-21 17:19:00,45.0,43.9,29.59,East,91,4.6,12.7,96,0.05,BKN,,0.08,0.0,WeatherDisplay:10.37,2013-11-21 16:19:00,
2013-11-21 17:24:00,45.0,43.9,29.58,East,81,6.5,11.5,96,0.04,BKN,,0.08,0.0,WeatherDisplay:10.37,2013-11-21 16:24:00,
2013-11-21 17:29:00,45.1,44.0,29.58,East,94,7.5,15.0,96,0.04,BKN,,0.08,0.0,WeatherDisplay:10.37,2013-11-21 16:29:00,
2013-11-21 17:34:00,45.1,44.0,29.59,ESE,122,7.2,10.4,96,0.04,BKN,,0.08,0.0,WeatherDisplay:10.37,2013-11-21 16:34:00,
2013-11-21 17:39:00,45.2,44.1,29.59,ESE,103,5.4,11.5,96,0.04,RA,,0.09,0.0,WeatherDisplay:10.37,2013-11-21 16:39:00,
2013-11-21 17:44:00,45.2,44.1,29.58,ESE,103,3.3,11.5,96,0.03,RA,,0.09,0.0,WeatherDisplay:10.37,2013-11-21 16:44:00,
2013-11-21 17:49:00,45.2,44.1,29.58,ESE,111,5.4,11.5,96,0.02,BKN,,0.09,0.0,WeatherDisplay:10.37,2013-11-21 16:49:00,
2013-11-21 17:54:00,45.3,44.5,29.58,SE,126,6.8,16.1,97,0.02,BKN,,0.09,0.0,WeatherDisplay:10.37,2013-11-21 16:54:00,
2013-11-21 17:59:00,45.3,44.5,29.58,ESE,109,3.3,10.4,97,0.02,RA,,0.09,0.0,WeatherDisplay:10.37,2013-11-21 16:59:00,
2013-11-21 18:04:00,45.4,44.6,29.58,SE,128,3.6,12.7,97,0.02,RA,,0.09,0.0,WeatherDisplay:10.37,2013-11-21 17:04:00,
2013-11-21 18:09:00,45.4,44.6,29.58,ESE,117,7.9,13.0,97,0.02,BKN,,0.09,0.0,WeatherDisplay:10.37,2013-11-21 17:09:00,
2013-11-21 18:14:00,45.4,44.6,29.58,ESE,109,5.7,15.0,97,0.02,BKN,,0.09,0.0,WeatherDisplay:10.37,2013-11-21 17:14:00,
2013-11-21 18:19:00,45.5,44.7,29.58,East,98,3.8,13.8,97,0.02,BKN,,0.09,0.0,WeatherDisplay:10.37,2013-11-21 17:19:00,
2013-11-21 18:24:00,45.5,44.7,29.58,East,99,8.2,17.3,97,0.02,BKN,,0.09,0.0,WeatherDisplay:10.37,2013-11-21 17:24:00,
2013-11-21 18:29:00,45.6,44.5,29.58,SE,130,10.7,18.0,96,0.02,BKN,,0.09,0.0,WeatherDisplay:10.37,2013-11-21 17:29:00,
2013-11-21 18:34:00,45.7,44.6,29.58,ESE,113,12.0,17.0,96,0.02,BKN,,0.09,0.0,WeatherDisplay:10.37,2013-11-21 17:34:00,
2013-11-21 18:39:00,45.7,44.6,29.58,ESE,115,5.2,15.0,96,0.01,BKN,,0.09,0.0,WeatherDisplay:10.37,2013-11-21 17:39:00,
2013-11-21 18:44:00,45.8,44.7,29.58,SE,136,7.8,11.5,96,0.01,BKN,,0.09,0.0,WeatherDisplay:10.37,2013-11-21 17:44:00,
2013-11-21 18:49:00,45.8,44.7,29.58,ESE,117,9.4,15.0,96,0.01,BKN,,0.09,0.0,WeatherDisplay:10.37,2013-11-21 17:49:00,
2013-11-21 18:54:00,45.9,45.1,29.58,East,100,6.2,12.7,97,0.01,BKN,,0.09,0.0,WeatherDisplay:10.37,2013-11-21 17:54:00,
2013-11-21 18:59:00,46.0,45.2,29.59,SE,137,2.0,3.5,97,0.00,BKN,,0.09,0.0,WeatherDisplay:10.37,2013-11-21 17:59:00,
2013-11-21 19:04:00,46.0,45.2,29.59,East,101,4.6,8.0,97,0.00,BKN,,0.09,0.0,WeatherDisplay:10.37,2013-11-21 18:04:00,
2013-11-21 19:09:00,46.1,45.3,29.59,SE,129,4.3,8.1,97,0.00,BKN,,0.09,0.0,WeatherDisplay:10.37,2013-11-21 18:09:00,
2013-11-21 19:14:00,46.1,45.3,29.58,SE,128,4.8,10.4,97,0.00,BKN,,0.09,0.0,WeatherDisplay:10.37,2013-11-21 18:14:00,
2013-11-21 19:19:00,46.2,45.4,29.59,East,96,4.9,11.5,97,0.00,BKN,,0.09,0.0,WeatherDisplay:10.37,2013-11-21 18:19:00,
2013-11-21 19:24:00,46.2,45.4,29.59,SE,129,5.9,9.2,97,0.00,BKN,,0.09,0.0,WeatherDisplay:10.37,2013-11-21 18:24:00,
2013-11-21 19:29:00,46.3,45.5,29.59,ESE,105,6.2,11.5,97,0.00,BKN,,0.09,0.0,WeatherDisplay:10.37,2013-11-21 18:29:00,
2013-11-21 19:34:00,46.3,45.5,29.59,SE,141,6.2,10.4,97,0.00,BKN,,0.09,0.0,WeatherDisplay:10.37,2013-11-21 18:34:00,
2013-11-21 19:39:00,46.4,45.6,29.59,SE,132,3.5,8.1,97,0.00,BKN,,0.09,0.0,WeatherDisplay:10.37,2013-11-21 18:39:00,
2013-11-21 19:44:00,46.4,45.6,29.59,SE,129,6.9,10.0,97,0.00,BKN,,0.09,0.0,WeatherDisplay:10.37,2013-11-21 18:44:00,
2013-11-21 19:49:00,46.4,45.6,29.59,East,93,6.8,11.5,97,0.00,BKN,,0.09,0.0,WeatherDisplay:10.37,2013-11-21 18:49:00,
2013-11-21 19:54:00,46.4,45.6,29.59,ESE,104,5.3,12.7,97,0.00,BKN,,0.09,0.0,WeatherDisplay:10.37,2013-11-21 18:54:00,
2013-11-21 19:59:00,46.5,45.7,29.60,SE,138,8.4,12.0,97,0.00,BKN,,0.09,0.0,WeatherDisplay:10.37,2013-11-21 18:59:00,
2013-11-21 20:04:00,46.5,45.7,29.60,SE,126,3.5,11.5,97,0.00,BKN,,0.09,0.0,WeatherDisplay:10.37,2013-11-21 19:04:00,
2013-11-21 20:09:00,46.5,45.7,29.59,SE,144,6.5,12.0,97,0.00,BKN,,0.09,0.0,WeatherDisplay:10.37,2013-11-21 19:09:00,
2013-11-21 20:14:00,46.5,45.7,29.59,East,83,5.0,12.7,97,0.00,BKN,,0.09,0.0,WeatherDisplay:10.37,2013-11-21 19:14:00,
2013-11-21 20:19:00,46.6,45.8,29.60,SSE,156,4.4,10.4,97,0.00,BKN,,0.09,0.0,WeatherDisplay:10.37,2013-11-21 19:19:00,
2013-11-21 20:24:00,46.6,45.8,29.60,SE,135,3.2,8.1,97,0.00,BKN,,0.09,0.0,WeatherDisplay:10.37,2013-11-21 19:24:00,
2013-11-21 20:29:00,46.6,45.8,29.60,ESE,123,3.6,8.1,97,0.00,BKN,,0.09,0.0,WeatherDisplay:10.37,2013-11-21 19:29:00,
2013-11-21 20:34:00,46.6,45.8,29.60,SE,128,7.3,11.5,97,0.00,BKN,,0.09,0.0,WeatherDisplay:10.37,2013-11-21 19:34:00,
2013-11-21 20:39:00,46.6,45.8,29.60,ESE,114,3.6,10.4,97,0.00,BKN,,0.09,0.0,WeatherDisplay:10.37,2013-11-21 19:39:00,
2013-11-21 20:44:00,46.7,45.9,29.60,ESE,113,4.3,8.1,97,0.00,BKN,,0.09,0.0,WeatherDisplay:10.37,2013-11-21 19:44:00,
2013-11-21 20:49:00,46.8,46.0,29.60,ESE,123,4.5,10.4,97,0.00,BKN,,0.09,0.0,WeatherDisplay:10.37,2013-11-21 19:49:00,
2013-11-21 20:54:00,46.8,46.0,29.60,SE,138,3.6,10.4,97,0.00,BKN,,0.09,0.0,WeatherDisplay:10.37,2013-11-21 19:54:00,
2013-11-21 20:59:00,46.8,46.0,29.61,SE,129,3.1,8.1,97,0.00,BKN,,0.09,0.0,WeatherDisplay:10.37,2013-11-21 19:59:00,
2013-11-21 21:04:00,46.8,46.0,29.61,ESE,105,4.4,11.5,97,0.00,BKN,,0.09,0.0,WeatherDisplay:10.37,2013-11-21 20:04:00,
2013-11-21 21:09:00,46.9,46.1,29.61,SE,146,5.1,9.2,97,0.00,BKN,,0.09,0.0,WeatherDisplay:10.37,2013-11-21 20:09:00,
2013-11-21 21:14:00,46.8,46.0,29.61,SE,141,5.7,9.0,97,0.00,BKN,,0.09,0.0,WeatherDisplay:10.37,2013-11-21 20:14:00,
2013-11-21 21:19:00,46.9,46.1,29.61,SE,136,3.1,5.0,97,0.00,BKN,,0.09,0.0,WeatherDisplay:10.37,2013-11-21 20:19:00,
2013-11-21 21:24:00,46.9,46.1,29.61,SSE,163,2.1,9.2,97,0.00,BKN,,0.09,0.0,WeatherDisplay:10.37,2013-11-21 20:24:00,
2013-11-21 21:29:00,46.9,46.1,29.61,SE,132,3.0,6.9,97,0.00,BKN,,0.09,0.0,WeatherDisplay:10.37,2013-11-21 20:29:00,
2013-11-21 21:34:00,46.9,46.1,29.61,SSE,156,1.4,6.9,97,0.00,BKN,,0.09,0.0,WeatherDisplay:10.37,2013-11-21 20:34:00,
2013-11-21 21:39:00,46.9,46.1,29.60,SE,129,0.0,3.5,97,0.00,BKN,,0.09,0.0,WeatherDisplay:10.37,2013-11-21 20:39:00,
2013-11-21 21:44:00,46.9,46.1,29.61,SSE,147,2.4,4.0,97,0.00,BKN,,0.09,0.0,WeatherDisplay:10.37,2013-11-21 20:44:00,
2013-11-21 21:49:00,46.9,46.1,29.61,SSE,152,0.0,3.5,97,0.00,BKN,,0.09,0.0,WeatherDisplay:10.37,2013-11-21 20:49:00,
2013-11-21 21:54:00,46.9,46.1,29.61,SSE,153,0.6,3.0,97,0.00,BKN,,0.09,0.0,WeatherDisplay:10.37,2013-11-21 20:54:00,
2013-11-21 21:59:00,46.9,46.1,29.61,South,187,0.6,2.3,97,0.00,BKN,,0.09,0.0,WeatherDisplay:10.37,2013-11-21 20:59:00,
2013-11-21 22:04:00,47.0,46.2,29.61,South,179,0.0,1.0,97,0.00,BKN,,0.09,0.0,WeatherDisplay:10.37,2013-11-21 21:04:00,
2013-11-21 22:09:00,47.0,46.2,29.61,South,179,0.0,2.3,97,0.00,BKN,,0.09,0.0,WeatherDisplay:10.37,2013-11-21 21:09:00,
2013-11-21 22:14:00,46.9,46.1,29.61,South,178,0.0,0.0,97,0.00,BKN,,0.09,0.0,WeatherDisplay:10.37,2013-11-21 21:14:00,
2013-11-21 22:19:00,46.9,46.1,29.61,South,179,0.0,0.0,97,0.00,BKN,,0.09,0.0,WeatherDisplay:10.37,2013-11-21 21:19:00,
2013-11-21 22:24:00,46.9,46.1,29.60,South,179,0.7,2.3,97,0.00,BKN,,0.09,0.0,WeatherDisplay:10.37,2013-11-21 21:24:00,
2013-11-21 22:29:00,47.0,46.2,29.61,South,179,0.0,1.2,97,0.00,BKN,,0.09,0.0,WeatherDisplay:10.37,2013-11-21 21:29:00,
2013-11-21 22:34:00,46.9,46.1,29.61,South,179,0.0,0.0,97,0.00,BKN,,0.09,0.0,WeatherDisplay:10.37,2013-11-21 21:34:00,
2013-11-21 22:39:00,46.8,45.7,29.61,SSE,151,0.0,0.0,96,0.00,BKN,,0.09,0.0,WeatherDisplay:10.37,2013-11-21 21:39:00,
2013-11-21 22:44:00,46.7,45.6,29.61,SSE,151,0.0,0.0,96,0.00,BKN,,0.09,0.0,WeatherDisplay:10.37,2013-11-21 21:44:00,
2013-11-21 22:49:00,46.6,45.8,29.61,SSE,151,0.2,1.2,97,0.00,BKN,,0.09,0.0,WeatherDisplay:10.37,2013-11-21 21:49:00,
2013-11-21 22:54:00,46.6,45.8,29.61,SSE,153,0.6,2.3,97,0.00,BKN,,0.09,0.0,WeatherDisplay:10.37,2013-11-21 21:54:00,
2013-11-21 22:59:00,46.6,45.8,29.61,SSW,213,0.8,3.5,97,0.00,BKN,,0.09,0.0,WeatherDisplay:10.37,2013-11-21 21:59:00,
2013-11-21 23:04:00,46.6,45.8,29.61,SSW,213,0.0,0.0,97,0.00,BKN,,0.09,0.0,WeatherDisplay:10.37,2013-11-21 22:04:00,
2013-11-21 23:09:00,46.6,45.8,29.61,SSW,213,0.0,1.2,97,0.00,BKN,,0.09,0.0,WeatherDisplay:10.37,2013-11-21 22:09:00,
2013-11-21 23:14:00,46.5,45.7,29.61,SSW,213,0.0,0.0,97,0.00,BKN,,0.09,0.0,WeatherDisplay:10.37,2013-11-21 22:14:00,
2013-11-21 23:19:00,46.5,45.7,29.61,SSW,212,0.0,0.0,97,0.00,BKN,,0.09,0.0,WeatherDisplay:10.37,2013-11-21 22:19:00,
2013-11-21 23:25:00,46.5,45.7,29.61,SSW,212,0.0,0.0,97,0.00,BKN,,0.09,0.0,WeatherDisplay:10.37,2013-11-21 22:25:00,
2013-11-21 23:30:00,46.6,45.8,29.62,SSW,213,0.0,1.0,97,0.00,BKN,,0.09,0.0,WeatherDisplay:10.37,2013-11-21 22:30:00,
2013-11-21 23:35:00,46.6,45.8,29.61,SSE,161,0.0,2.3,97,0.00,BKN,,0.09,0.0,WeatherDisplay:10.37,2013-11-21 22:35:00,
2013-11-21 23:40:00,46.6,45.8,29.61,SSE,161,0.2,1.0,97,0.00,BKN,,0.09,0.0,WeatherDisplay:10.37,2013-11-21 22:40:00,
2013-11-21 23:45:00,46.6,45.8,29.61,SSE,162,0.0,0.0,97,0.00,BKN,,0.09,0.0,WeatherDisplay:10.37,2013-11-21 22:45:00,
2013-11-21 23:50:00,46.6,45.8,29.62,SSE,161,0.0,0.0,97,0.00,BKN,,0.09,0.0,WeatherDisplay:10.37,2013-11-21 22:50:00,
2013-11-21 23:55:00,46.6,45.8,29.62,SSE,161,0.4,2.3,97,0.00,BKN,,0.09,0.0,WeatherDisplay:10.37,2013-11-21 22:55:00,